This is the latest recevied weather packets stored in our database for station/object KK6LZB. If no packets are shown the sender has not sent any weather packets the latest 10 day(s).
| Time | Temp. | Humidity | Pressure | Rain* | Wind** | Luminosity | Snow |
|---|---|---|---|---|---|---|---|
| 1778117858 | 18.33° C | 74% | 1018.2 hPa | 0 mm | - | 29 W/m² | - |
| 1778117555 | 18.33° C | 73% | 1018.3 hPa | 0 mm | - | 34 W/m² | - |
| 1778117253 | 18.33° C | 71% | 1018.2 hPa | 0 mm | - | 37 W/m² | - |
| 1778116948 | 19.44° C | 70% | 1018.1 hPa | 0 mm | - | 52 W/m² | - |
| 1778116646 | 20° C | 69% | 1018.1 hPa | 0 mm | - | 87 W/m² | - |
| 1778116342 | 20° C | 67% | 1018.2 hPa | 0 mm | - | 99 W/m² | - |
| 1778116042 | 20.56° C | 68% | 1018.1 hPa | 0 mm | - | 109 W/m² | - |
| 1778115738 | 20° C | 68% | 1018 hPa | 0 mm | - | 114 W/m² | - |
| 1778115436 | 20.56° C | 70% | 1018.1 hPa | 0 mm | - | 130 W/m² | - |
| 1778115132 | 20.56° C | 70% | 1017.9 hPa | 0 mm | - | 144 W/m² | - |
| 1778114828 | 21.11° C | 69% | 1017.9 hPa | 0 mm | - | 156 W/m² | - |
| 1778114526 | 21.11° C | 70% | 1017.8 hPa | 0 mm | - | 166 W/m² | - |
| 1778114222 | 21.11° C | 69% | 1018.1 hPa | 0 mm | - | 180 W/m² | - |
| 1778113918 | 20.56° C | 70% | 1017.8 hPa | 0 mm | - | 192 W/m² | - |
| 1778113614 | 21.11° C | 68% | 1017.8 hPa | 0 mm | - | 204 W/m² | - |
| 1778113310 | 21.11° C | 69% | 1018.1 hPa | 0 mm | - | 218 W/m² | - |
| 1778113007 | 20.56° C | 69% | 1018 hPa | 0 mm | - | 231 W/m² | - |
| 1778112704 | 21.11° C | 68% | 1017.8 hPa | 0 mm | - | 243 W/m² | - |
| 1778112401 | 21.11° C | 68% | 1017.8 hPa | 0 mm | - | 257 W/m² | - |
| 1778112096 | 21.11° C | 70% | 1017.8 hPa | 0 mm | - | 270 W/m² | - |
| 1778111794 | 20.56° C | 66% | 1017.9 hPa | 0 mm | - | 284 W/m² | - |
| 1778111494 | 22.22° C | 63% | 1018 hPa | 0 mm | - | 298 W/m² | - |
| 1778111191 | 21.67° C | 60% | 1018 hPa | 0 mm | - | 312 W/m² | - |
| 1778110888 | 21.11° C | 61% | 1017.9 hPa | 0 mm | - | 326 W/m² | - |
| 1778110585 | 21.11° C | 61% | 1017.7 hPa | 0 mm | - | 341 W/m² | - |
* Rain latest hour (hover to see other rain measurements)
** Current wind speed in m/s (hover to see current wind gust speed)